• MPC Preparation (Info)

  • MPEC 2016-Q05 : 2016 PZ66

    The following Minor Planet Electronic Circular may be linked-to from your own Web pages, but must not otherwise be redistributed electronically.

    A form allowing access to any MPEC is at the bottom of this page.


    Read MPEC 2016-Q04 Read MPEC 2016-Q06


    M.P.E.C. 2016-Q05                                Issued 2016 Aug. 17, 00:31 UT
    
         The Minor Planet Electronic Circulars contain information on unusual
             minor planets and routine data on comets.  They are published
        on behalf of Division F of the International Astronomical Union by the
              Minor Planet Center, Smithsonian Astrophysical Observatory,
                              Cambridge, MA 02138, U.S.A.
    
                 Prepared using the Tamkin Foundation Computer Network
    
                                  MPC@CFA.HARVARD.EDU
                URL https://www.minorplanetcenter.net/    ISSN 1523-6714
    
                                       2016 PZ66
    
    Observations:
         K16P66Z* C2016 08 13.33797 18 54 43.605+40 26 40.02         19.9 rLEQ005F51
         K16P66Z  C2016 08 13.36284 18 54 39.620+40 27 15.35         20.0 rLEQ005F51
         K16P66Z  C2016 08 13.37530 18 54 37.611+40 27 33.15         20.0 rLEQ005F51
         K16P66Z KC2016 08 13.85588 18 53 25.20 +40 38 47.2          19.9 VtEQ005595
         K16P66Z KC2016 08 13.87611 18 53 22.00 +40 39 14.9          20.1 VtEQ005595
         K16P66Z KC2016 08 13.89475 18 53 19.07 +40 39 41.1                tEQ005595
         K16P66Z KC2016 08 13.94998 18 53 10.40 +40 40 57.0          19.4 RqEQ005203
         K16P66Z KC2016 08 13.99394 18 53 03.53 +40 41 57.1          19.8 RqEQ005203
         K16P66Z KC2016 08 14.27878 18 52 20.86 +40 48 37.6          19.3 RoEQ005291
         K16P66Z KC2016 08 14.28067 18 52 20.55 +40 48 40.2          19.6 RoEQ005291
         K16P66Z KC2016 08 14.28258 18 52 20.25 +40 48 42.7          19.5 RoEQ005291
         K16P66Z KC2016 08 14.86470 18 50 53.86 +41 01 49.9                qEQ005J95
         K16P66Z KC2016 08 14.87429 18 50 52.39 +41 02 04.2                qEQ005J95
         K16P66Z KC2016 08 14.87861 18 50 51.52 +41 02 12.0                tEQ005104
         K16P66Z KC2016 08 14.88451 18 50 50.67 +41 02 19.3          19.4 RtEQ005104
         K16P66Z KC2016 08 14.88532 18 50 50.72 +41 02 18.3          19.8 RqEQ005J95
         K16P66Z KC2016 08 14.88967 18 50 49.84 +41 02 26.7                tEQ005104
         K16P66Z "C2016 08 15.30220518 49 47.89 +41 11 37.5          19.4 RtEQ005705
         K16P66Z "C2016 08 15.30322518 49 47.72 +41 11 38.8          19.5 RtEQ005705
         K16P66Z "C2016 08 15.30424818 49 47.61 +41 11 39.9          19.3 RtEQ005705
         K16P66Z KC2016 08 15.91983 18 48 17.54 +41 25 01.2                qEQ005J95
         K16P66Z KC2016 08 15.92848 18 48 16.18 +41 25 12.0                qEQ005J95
         K16P66Z KC2016 08 15.93739 18 48 14.85 +41 25 23.4          19.6 RqEQ005J95
         K16P66Z KC2016 08 16.95658 18 45 46.55 +41 46 49.0                qEQ005J95
         K16P66Z KC2016 08 16.97588 18 45 43.69 +41 47 12.5                qEQ005J95
         K16P66Z KC2016 08 16.99137 18 45 41.35 +41 47 31.2          19.9 RqEQ005J95
    
    Observer details:
    104 San Marcello Pistoiese.  Observers P. Bacci, M. Maestripieri, M. D. Grazia.
        Measurers P. Bacci, L. Tesi, G. Fagioli.  0.60-m f/4 reflector + CCD.
    203 GiaGa Observatory.  Observers S. Foglia, G. Galli.  Measurer G. Galli.
        0.28-m f/6.8 Schmidt-Cassegrain + CCD.
    291 LPL/Spacewatch II.  Observer R. A. Mastaler.  1.8-m f/2.7 reflector + CCD.
    595 Farra d'Isonzo.  Observers E. Pettarin, M. Vivona.  Measurer M. Vivona.
        0.61-m f/4.0 reflector + CCD.
    705 Apache Point.  Observers K. Nault, M. Hammergren, M. Brucker.  Measurer
        K. Nault.  3.5-m f/10 reflector + CCD.
    F51 Pan-STARRS 1, Haleakala.  Observers B. Gibson, T. Goggia, N. Primak,
        A. Schultz, M. Willman.  Measurers K. Chambers, S. Chastel, L. Denneau,
        H. Flewelling, M. Huber, E. Lilly, E. Magnier, R. Wainscoat, C. Waters,
        R. Weryk.  1.8-m Ritchey-Chretien + CCD.
    J95 Great Shefford.  Observer P. Birtwhistle.  0.40-m f/6.0 Schmidt-Cassegrain
        + CCD.
    
    Orbital elements:
    2016 PZ66                                                Earth MOID = 0.1869 AU
    Epoch 2016 July 31.0 TT = JDT 2457600.5                 MPC
    M 318.45823              (2000.0)            P               Q
    n   0.43676869     Peri.  125.28626     +0.74692379     -0.47758989
    a   1.7204223      Node   267.61442     +0.35156524     +0.87421529
    e   0.3841031      Incl.   27.58192     +0.56436401     +0.08749591
    P   2.26           H   19.1           G   0.15           U   8
    Residuals in seconds of arc
    160813 F51  0.1+  0.1+    160814 291  0.0   0.4+    160815 705  0.3-  0.0
    160813 F51  0.2+  0.1+    160814 291  0.0   0.3+    160815 705  0.2+  0.2-
    160813 F51  0.0   0.2+    160814 J95  0.4-  1.0-    160815 J95  0.0   0.1+
    160813 595  0.6+  0.7+    160814 J95  0.2-  0.3+    160815 J95  0.5-  0.1-
    160813 595  0.4+  0.1+    160814 104  0.1-  0.2+    160815 J95  0.2-  0.1-
    160813 595  0.4+  0.3+    160814 104  0.6+  0.4-    160816 J95  0.2+  0.1+
    160813 203  0.5-  0.3-    160814 J95  0.2+  0.5-    160816 J95  0.4+  0.2+
    160813 203  0.7-  0.3-    160814 104  0.3+  0.2+    160816 J95  0.0   0.2+
    160814 291  0.1+  0.3+    160815 705  0.1-  0.0
    
    Ephemeris:
    2016 PZ66                a,e,i = 1.72, 0.38, 28                  q = 1.0596
    Date    TT    R. A. (2000) Decl.     Delta      r     Elong.  Phase     V
    2016 07 18    20 01 08.2 +24 27 05   0.5648  1.4682   134.4    29.6    20.0
    ...
    2016 08 02    19 24 37.3 +34 52 00   0.5373  1.3867   123.6    37.5    20.0
    ...
    2016 08 10    19 03 20.8 +39 01 34   0.5370  1.3439   116.8    42.3    20.0
    ...
    2016 08 16    18 48 06.1 +41 26 46   0.5406  1.3124   111.7    45.8    20.1
    2016 08 17    18 45 40.8 +41 47 45   0.5414  1.3072   110.9    46.4    20.1
    2016 08 18    18 43 18.0 +42 07 52   0.5422  1.3020   110.1    46.9    20.1
    ...
    2016 08 24    18 30 01.2 +43 52 03   0.5474  1.2715   105.5    50.0    20.2
    ...
    2016 09 01    18 15 29.3 +45 34 48   0.5539  1.2325   100.0    53.8    20.2
    ...
    2016 09 16    17 59 15.8 +47 45 10   0.5567  1.1662    92.0    59.5    20.3
    
    A. U. Tomatic                (C) Copyright 2016 MPC           M.P.E.C. 2016-Q05
    

    Read MPEC 2016-Q04 Read MPEC 2016-Q06


    MPEC number:

    Enter an MPEC number in one of the following forms:

    • 1997-B01 (the full form)
    • J97B01 (the packed version of the full form)
    • B01 (the abbreviated form)